Printer-friendly version
Follow the MPC on Twitter Follow the MPC on Facebook The MPC blog
Minor Planet Center

MPEC 2007-F35 : 2007 FE1

The following Minor Planet Electronic Circular may be linked-to from your own Web pages, but must not otherwise be redistributed electronically.

A form allowing access to any MPEC is at the bottom of this page.


Read MPEC 2007-F34 Read MPEC 2007-F36


M.P.E.C. 2007-F35                                Issued 2007 Mar. 19, 11:39 UT

     The Minor Planet Electronic Circulars contain information on unusual
         minor planets and routine data on comets.  They are published
   on behalf of Commission 20 of the International Astronomical Union by the
          Minor Planet Center, Smithsonian Astrophysical Observatory,
                          Cambridge, MA 02138, U.S.A.

             Prepared using the Tamkin Foundation Computer Network

                              MPC@CFA.HARVARD.EDU
          URL http://cfa-www.harvard.edu/iau/mpc.html  ISSN 1523-6714

                                   2007 FE1

Observations:
     K07F01E* C2007 03 17.13242 07 48 24.01 +42 55 07.1          20.3 V EF035703
     K07F01E  C2007 03 17.14161 07 48 23.40 +42 55 03.2          19.8 V EF035703
     K07F01E  C2007 03 17.15066 07 48 22.82 +42 54 56.2          19.6 V EF035703
     K07F01E  C2007 03 17.15984 07 48 22.24 +42 54 51.3          19.7 V EF035703
     K07F01E  C2007 03 17.16868 07 48 21.52 +42 54 47.2          19.8 V EF035703
     K07F01E  C2007 03 17.17774 07 48 20.95 +42 54 42.7          19.7 V EF035703
     K07F01E  C2007 03 17.18669 07 48 20.37 +42 54 37.6          20.1 V EF035703
     K07F01E  C2007 03 17.19558 07 48 19.72 +42 54 32.8          19.7 V EF035703
     K07F01E  C2007 03 17.51809 07 48 01.13 +42 51 49.0          20.5 V EF035D35
     K07F01E  C2007 03 17.51980 07 48 01.05 +42 51 46.4          19.8 V EF035D35
     K07F01E  C2007 03 17.52154 07 48 00.76 +42 51 44.1          20.2 V EF035D35
     K07F01E  C2007 03 17.79333 07 47 45.72 +42 49 17.5          19.2 R EF035157
     K07F01E  C2007 03 17.95230 07 47 35.99 +42 47 48.6                 EF035204
     K07F01E  C2007 03 17.97758 07 47 34.51 +42 47 34.3          19.6 R EF035204
     K07F01E  C2007 03 18.03862507 47 32.21 +42 47 06.6          19.9   EF035H55
     K07F01E  C2007 03 18.05031607 47 31.50 +42 47 00.4          20.0   EF035H55
     K07F01E  C2007 03 18.06138207 47 30.82 +42 46 54.6          20.0   EF035H55
     K07F01E 5C2007 03 19.12280 07 46 35.35 +42 37 11.0          19.4 R EF035673
     K07F01E 5C2007 03 19.12766 07 46 35.10 +42 37 08.1                 EF035673
     K07F01E 5C2007 03 19.13345 07 46 34.78 +42 37 04.9                 EF035673
     K07F01E 5C2007 03 19.14375 07 46 34.20 +42 36 59.0                 EF035673

Observer details:
157 Frasso Sabino.  Observers R. Haver, M. Calabresi, R. Albanesi, R. Gorelli.
    Measurer R. Haver.  0.20-m f/7.1 Schmidt-Cassegrain + CCD.
204 Schiaparelli Observatory.  Observers L. Buzzi, F. Luppi.  Measurer
    L. Buzzi.  0.60-m f/4.64 reflector + CCD.
673 Table Mountain Observatory, Wrightwood.  Observer J. Young.  0.61-m f/16
    Cassegrain + CCD.
703 Catalina Sky Survey.  Observer R. A. Kowalski.  Measurers E. C. Beshore,
    E. J. Christensen, G. J. Garradd, A. R. Gibbs, A. D. Grauer, R. E. Hill,
    R. A. Kowalski, S. M. Larson, R. H. McNaught.  0.68-m Schmidt + CCD.
D35 Lulin Observatory.  Observers Q.-z. Ye, H.-C. Lin, C.-S. Lin, C.-y. Shih.
    Measurer Q.-z. Ye.  0.41-m f/8.8 Ritchey-Chretien + 2Kx2K CCD + f/6.25
    focal reducer.
H55 Astronomical Research Observatory, Charleston.  Observer R. Holmes.
    0.81-m f/4.0 astrograph + CCD.

Orbital elements:
2007 FE1                                                 Earth MOID = 0.0631 AU
Epoch 2007 Apr. 10.0 TT = JDT 2454200.5                 MPC
M 340.77964              (2000.0)            P               Q
n   0.34623725     Peri.  192.57043     -0.54061404     +0.83278814
a   2.0085695      Node    44.85429     -0.75648633     -0.41925711
e   0.5420523      Incl.    9.72709     -0.36805554     -0.36150710
P   2.85           H   18.6           G   0.15           U   9
Residuals in seconds of arc
070317 703  0.4+  0.9+    070317 703  0.5-  0.5-    070318 H55  0.1+  0.2+
070317 703  0.5+  1.7+    070317 D35  0.1-  1.4+    070318 H55  0.2+  0.1+
070317 703  0.8+  0.7-    070317 D35  0.3+  0.3-    070318 H55  0.3+  0.2+
070317 703  1.1+  0.8-    070317 D35  1.7-  1.7-    070319 673  0.1-  0.2+
070317 703  0.3-  0.3-    070317 157  1.0+  0.2+    070319 673  0.2+  0.0
070317 703  0.0   0.0     070317 204  0.4+  0.3-    070319 673  0.3+  0.0
070317 703  0.2+  0.4-    070317 204  0.6+  0.1-    070319 673  0.3+  0.2-

Ephemeris:
2007 FE1                 a,e,i = 2.01, 0.54, 10                  q = 0.9198
Date    TT    R. A. (2000) Decl.     Delta      r     Elong.  Phase     V
2007 03 11    07 56.01   +43 39.5    0.592    1.385   119.7    38.5    19.7
2007 03 21    07 45.17   +42 18.9    0.580    1.307   109.2    46.0    19.7
2007 03 31    07 42.34   +40 22.5    0.567    1.231   100.0    53.0    19.8
2007 04 10    07 46.42   +37 58.8    0.549    1.158    91.9    59.9    19.8
2007 04 20    07 55.98   +35 07.2    0.521    1.089    84.8    66.7    19.7
2007 04 30    08 09.45   +31 40.3    0.484    1.029    78.7    73.8    19.7
2007 05 10    08 25.22   +27 24.5    0.437    0.978    73.3    81.3    19.6
2007 05 20    08 41.86   +21 57.1    0.382    0.942    68.6    89.2    19.5
2007 05 30    08 58.13   +14 41.5    0.323    0.923    64.6    96.9    19.5
2007 06 09    09 13.12   +04 36.2    0.264    0.922    62.1   103.2    19.3
2007 06 19    09 27.24   -09 58.0    0.212    0.939    63.1   105.3    19.0
2007 06 29    09 43.21   -30 44.2    0.177    0.974    71.2    98.9    18.4
2007 07 09    10 12.01   -56 06.7    0.168    1.023    87.4    83.2    17.7
2007 07 19    12 11.49   -78 07.4    0.189    1.083   105.6    64.7    17.4
2007 07 29    18 40.48   -77 20.7    0.234    1.150   120.0    49.9    17.6
2007 08 08    20 02.62   -65 45.2    0.296    1.223   129.3    39.9    18.0
2007 08 18    20 26.53   -56 29.3    0.372    1.299   134.1    34.0    18.4
2007 08 28    20 40.15   -49 14.9    0.463    1.377   135.1    31.2    19.0
2007 09 07    20 51.18   -43 26.7    0.566    1.455   133.3    30.3    19.5
2007 09 17    21 01.85   -38 39.0    0.683    1.533   129.5    30.4    20.0
2007 09 27    21 12.94   -34 35.2    0.813    1.610   124.7    30.8    20.5
2007 10 07    21 24.56   -31 03.6    0.954    1.686   119.3    31.1    21.0
2007 10 17    21 36.77   -27 55.3    1.106    1.760   113.5    31.3    21.4
2007 10 27    21 49.51   -25 04.1    1.267    1.832   107.6    31.1    21.8

Timothy B. Spahr             (C) Copyright 2007 MPC           M.P.E.C. 2007-F35

Read MPEC 2007-F34 Read MPEC 2007-F36


MPEC number:

Enter an MPEC number in one of the following forms:

  • 1997-B01 (the full form)
  • J97B01 (the packed version of the full form)
  • B01 (the abbreviated form)

Valid HTML 4.01!